Location: Champs
(48.8539°N, 2.6040°E)
Time: 03:07:44
(UTC+00:00)

Cosmos 1536 Rocket - Pass Details

Date: 26 October 2021
Orbit: 605 x 632 km, 82.5° (Epoch: 30 November)

Event Time Altitude Azimuth Distance (km) Brightness Sun altitude
Rises 05:03:07 0° 181° (S) 2,886 7.0 -14.4°
Reaches altitude 10° 05:05:21 10° 179° (S) 1,980 6.2 -14.0°
Maximum altitude 05:09:42 68° 96° (E) 665 3.9 -13.3°
Drops below altitude 10° 05:14:03 10° 14° (NNE) 1,980 6.3 -12.6°
Sets 05:16:17 0° 12° (NNE) 2,886 7.1 -12.2°
